Flag for Japan Weather past 2 weeks in Niigata, Japan

Now
37 °F

Snow flurries. Partly cloudy.


Feels Like: 27 °F
Forecast: 35 / 38 °F
Wind: 18 mph from Northwest

Location: Niigata Airport

Current Time: Jan 27, 2015 at 10:19:48 PM

Latest Report: Jan 27, 2015 at 9:00 PM


Visibility: 5 mi

Pressure: 30.01 "Hg

Humidity: 81%

Dew point: 32 °F

Location of NiigataLocation

Historic Weather in Niigata — Graph

°F

Niigata temperature yesterday

Maximum temperature yesterday: 52 °F (at 1:00 PM)
Minimum temperature yesterday: 34 °F (at 7:00 AM)
Average temperature yesterday: 45 °F

Past Weeks' High & Low Weather Summary

 TemperatureHumidityPressure
High52 °F (Jan 26, 1:00 PM)100% (Jan 15, 9:00 PM)30.48 "Hg (Jan 15, 9:00 PM)
Low28 °F (Jan 21, 7:00 AM)39% (Jan 20, 11:00 AM)29.68 "Hg (Jan 22, 8:00 PM)
Average40 °F71%30.08 "Hg
* Reported Jan 12 9:00 PM — Jan 27 9:00 PM, Niigata, Weather by CustomWeather, © 2014

Note: Actual official high and low records may vary slightly from our data, if they occured in-between our weather recording intervals... More about our weather records

Advertising

Niigata weather history for previous 24 hours

 ConditionsComfort  
Time TempWeatherWind HumidityBarometerVisibility
9:00 PM
Jan 27
37 °FSnow flurries. Partly cloudy.18 mph81%30.01 "Hg5 mi
8:00 PM39 °FSprinkles. Passing clouds.17 mph70%29.98 "HgN/A
7:00 PM39 °FSprinkles. Partly cloudy.20 mph70%29.95 "HgN/A
6:00 PM41 °FSprinkles. Passing clouds.18 mph66%29.95 "HgN/A
5:00 PM41 °FSprinkles. Partly cloudy.18 mph76%29.95 "Hg4 mi
4:00 PM41 °FSprinkles. Broken clouds.17 mph81%29.92 "Hg5 mi
3:00 PM43 °FScattered showers. Broken clouds.15 mph66%29.92 "HgN/A
2:00 PM43 °FScattered showers. Broken clouds.16 mph71%29.89 "HgN/A
1:00 PM43 °FSprinkles. Partly sunny.18 mph76%29.89 "HgN/A
12:00 PM43 °FSprinkles. Fog.18 mph87%29.92 "Hg3 mi
11:45 AM43 °FSprinkles. Fog.21 mph87%29.92 "Hg3 mi
11:00 AM43 °FSprinkles. Fog.24 mph87%29.92 "Hg3 mi
10:00 AM45 °FSprinkles. Broken clouds.26 mph93%29.89 "Hg4 mi
9:00 AM43 °FRain showers. Fog.12 mph93%29.83 "Hg2 mi
8:00 AM45 °FSprinkles. Partly sunny.9 mph81%29.83 "HgN/A
7:00 AM45 °FPartly sunny.13 mph76%29.83 "HgN/A
Weather by CustomWeather, © 2014

See weather overviewHow to use our weather pages